This is the latest recevied weather packets stored in our database for station/object OK1LPD-6. If no packets are shown the sender has not sent any weather packets the latest 10 day(s).
| Time | Temp. | Humidity | Pressure | Rain* | Wind** | Luminosity | Snow |
|---|---|---|---|---|---|---|---|
| 1787778398 | 17.78° C | 73% | 1019.5 hPa | 0 mm | - | - | - |
| 1787777798 | 17.78° C | 72% | 1019.4 hPa | 0 mm | - | - | - |
| 1787777207 | 17.78° C | 72% | 1019.3 hPa | 0 mm | - | - | - |
| 1787776599 | 17.78° C | 72% | 1019.5 hPa | 0 mm | - | - | - |
| 1787775998 | 18.33° C | 72% | 1019.5 hPa | 0 mm | - | - | - |
| 1787775411 | 18.33° C | 72% | 1019.6 hPa | 0 mm | - | - | - |
| 1787774798 | 18.33° C | 72% | 1019.5 hPa | 0 mm | - | - | - |
| 1787774198 | 18.33° C | 71% | 1019.5 hPa | 0 mm | - | - | - |
| 1787773617 | 18.33° C | 70% | 1019.6 hPa | 0 mm | - | - | - |
| 1787772999 | 18.33° C | 70% | 1019.5 hPa | 0 mm | - | - | - |
| 1787772399 | 18.89° C | 70% | 1019.4 hPa | 0 mm | - | - | - |
| 1787771819 | 18.89° C | 68% | 1019.5 hPa | 0 mm | - | - | - |
| 1787771199 | 19.44° C | 67% | 1019.4 hPa | 0 mm | - | - | - |
| 1787770599 | 19.44° C | 66% | 1019.3 hPa | 0 mm | - | - | - |
| 1787770017 | 19.44° C | 66% | 1019.3 hPa | 0 mm | - | - | - |
| 1787769400 | 20° C | 65% | 1019.2 hPa | 0 mm | - | - | - |
| 1787768800 | 20.56° C | 64% | 1019.2 hPa | 0 mm | - | - | - |
| 1787768220 | 20.56° C | 63% | 1019.1 hPa | 0 mm | - | - | - |
| 1787767599 | 21.67° C | 63% | 1018.9 hPa | 0 mm | - | - | - |
| 1787766999 | 21.11° C | 62% | 1018.8 hPa | 0 mm | - | - | - |
| 1787766417 | 21.11° C | 61% | 1019 hPa | 0 mm | - | - | - |
| 1787765800 | 21.67° C | 61% | 1019 hPa | 0 mm | - | - | - |
| 1787765200 | 21.67° C | 60% | 1019 hPa | 0 mm | - | - | - |
| 1787764620 | 21.67° C | 60% | 1018.9 hPa | 0 mm | - | - | - |
| 1787764001 | 22.22° C | 60% | 1018.9 hPa | 0 mm | - | - | - |
* Rain latest hour (hover to see other rain measurements)
** Current wind speed in m/s (hover to see current wind gust speed)